Regional Weather Roundup
Issued by NWS

Home | Current Version | Previous Version | Text Only | Print | Product List | Glossary Off
Versions: 1 2 3 4 5 6 7 8 9 10 11 12 13 14 15 16 17 18 19 20 21 22 23 24 25 26 27 28 29 30 31 32 33 34 35 36 37 38 39 40 41 42 43 44 45 46 47 48 49 50

000
ASUS43 KDMX 301907
RWRIA

WEATHER ROUNDUP FOR IOWA
NATIONAL WEATHER SERVICE DES MOINES IA
200 PM CDT MON MAR 30 2015

NOTE: "FAIR" INDICATES FEW OR NO CLOUDS BELOW 12,000 FEET WITH NO
SIGNIFICANT WEATHER AND/OR OBSTRUCTIONS TO VISIBILITY.

* - THESE STATIONS ARE NOT NWS STATIONS...THUS NOT UNDER NWS
QUALITY CONTROL.  THEY ALSO DO NOT REPORT WEATHER SUCH
AS PRECIPITATION OR FOG.

IAZ001>003-012>014-020>022-031>034-043>046-302000-
   NORTHWEST IOWA

CITY           SKY/WX    TMP DP  RH WIND       PRES   REMARKS
CARROLL *      SUNNY     70  23  17 SW29G43   29.92F
CHEROKEE *     PTSUNNY   72  27  18 W22G29    29.89F
DENISON *      SUNNY     72  27  18 SW25G33   29.92F
LE MARS *      SUNNY     72  27  18 W16G24    29.91S
ORANGE CITY *  SUNNY     72  21  15 W15G22    29.89F
SHELDON *      SUNNY     70  28  21 W20       29.87F
SIOUX CITY     MOSUNNY   76  23  14 W20G29    29.91F
SPENCER        PTSUNNY   70  28  21 W26G33    29.87F
STORM LAKE *   SUNNY     68  27  21 W28G41    29.91F
$$

IAZ055>058-069>071-079>083-090>094-302000-
   SOUTHWEST IOWA

CITY           SKY/WX    TMP DP  RH WIND       PRES   REMARKS
ATLANTIC *     SUNNY     72  23  16 SW26G37   29.96F
AUDUBON *      SUNNY     72   5   7 SW21G36   29.96F
CLARINDA *     SUNNY     72  27  18 SW17G26   30.02F
COUNCIL BLFS * SUNNY     73  28  19 SW21G35   29.97F
CRESTON *      SUNNY     68  27  21 SW23G32   30.00F
HARLAN  *      SUNNY     72  25  17 SW28G38   29.98F
LAMONI         MOSUNNY   69  28  21 SW23      30.03F
RED OAK *      SUNNY     72  25  17 SW28G35   29.99F
SHENANDOAH *   SUNNY     72  25  17 SW24G32   30.00F
$$

IAZ047>049-059>061-072>074-084-302000-
   CENTRAL IOWA

CITY           SKY/WX    TMP DP  RH WIND       PRES   REMARKS
AMES           MOSUNNY   71  26  18 SW28G33   29.94F
ANKENY *       SUNNY     70  27  19 SW22      29.96F
CHARITON *     SUNNY     68  28  22 SW22G29   30.01F
DES MOINES     PTSUNNY   72  23  16 W23       29.97F
GRINNELL*      MOSUNNY   68  27  21 SW21G29   29.97F
KNOXVILLE *    SUNNY     70  27  19 W23G32    29.98F
MARSHALLTOWN   PTSUNNY   70  28  21 SW28G36   29.93F
PELLA *        SUNNY     70  34  26 W16G23    30.00F
PERRY *          N/A     72  25  17 SW29G35   29.94F
$$

IAZ004>006-015-016-023>025-035-036-302000-
   NORTH CENTRAL IOWA

CITY           SKY/WX    TMP DP  RH WIND       PRES   REMARKS
ALGONA *       SUNNY     68  27  21 W28G43    29.88F
CLARION *      SUNNY     70  30  23 SW30G41   29.88F
ESTHERVILLE    PTSUNNY   68  26  20 W22G32    29.86F
FORT DODGE *   PTSUNNY   72  27  18 SW26G36   29.91F
MASON CITY     PTSUNNY   66  31  27 SW18G28   29.89F
FOREST CITY *  SUNNY     66  30  26 SW25      29.86F
IOWA FALLS *     N/A     70  28  21 SW25G32   29.92F
$$

IAZ007>011-017>019-026>030-037>042-050>054-066-302000-
   NORTHEAST IOWA

CITY           SKY/WX    TMP DP  RH WIND       PRES   REMARKS
CEDAR RAPIDS   MOSUNNY   67  26  21 W17G30    29.95F
CHARLES CITY * PTSUNNY   64  32  29 SW13G25   29.89F
CLINTON *      MOSUNNY   66  32  28 W16       29.99F
DECORAH *      MOSUNNY   57  34  41 NE6       29.91F
DUBUQUE        PTSUNNY   64  29  26 W17       29.94F
MONTICELLO *   MOSUNNY   66  28  24 W17       29.94F
OELWEIN *      PTSUNNY   63  28  27 SW14G21   29.93F
WATERLOO       CLOUDY    67  26  21 SW20G30   29.91F
$$

IAZ064-065-067-068-078-302000-
   EAST CENTRAL IOWA

CITY           SKY/WX    TMP DP  RH WIND       PRES   REMARKS
DAVENPORT      MOSUNNY   67  28  23 W21G26    29.99F
IOWA CITY      SUNNY     70  27  20 W17G25    29.98F
MT. PLEASANT * MOSUNNY   68  27  21 W14G22    30.01F
MUSCATINE *    SUNNY     70  27  19 W17G24    29.99F
QUAD CITIES    MOSUNNY   67  25  20 W14G24    29.98F
$$

IAZ062-063-075>077-085>089-095>099-302000-
   SOUTHEAST IOWA

CITY           SKY/WX    TMP DP  RH WIND       PRES   REMARKS
BURLINGTON     SUNNY     68  30  24 W14G21    30.01F
FAIRFIELD *    SUNNY     68  27  21 W14G22    30.01F
FORT MADISON * SUNNY     68  30  24 W9G16     30.03F
KEOKUK *       SUNNY     68  27  21 SW13      30.03F
OSKALOOSA *      N/A     70  27  19 SW21G31   29.99F
CENTERVILLE *  SUNNY     68  28  22 SW13G22   30.04F
OTTUMWA        SUNNY     70  26  19 SW20G28   30.00F
WASHINGTON *   SUNNY     70  27  19 SW13G22   29.99F
$$

ABBREVIATIONS USED IN REMARKS
   TC - TEMPERATURES IN CELSIUS
  WCI - WIND CHILL INDEX
   HX - HEAT INDEX
  VSB - VISIBILITY
$$




USA.gov is the U.S. government's official web portal to all federal, state and local government web resources and services.